[Iaude] MPEC C112: 2024 CB2 [a=1.06,e=0.29,i=14.5,H=21.9]

mpec at cfa.harvard.edu mpec at cfa.harvard.edu
Sat Feb 10 20:59:04 EST 2024


M.P.E.C. 2024-C112                            Issued 2024 February 11, 01:57 UT

     The Minor Planet Electronic Circulars contain information on unusual
         minor planets, routine data on comets and natural satellites,
         and occasional editorial announcements.  They are published
    on behalf of Division F of the International Astronomical Union by the
          Minor Planet Center, Smithsonian Astrophysical Observatory,
                          Cambridge, MA 02138, U.S.A.
			  
             Prepared using the Tamkin Foundation Computer Network

                              MPC at CFA.HARVARD.EDU
            URL https://www.minorplanetcenter.net/    ISSN 1523-6714

                                    2024 CB2                                    


Observations:
     K24C02B  C2024 01 20.50032 12 30 07.20 +11 36 00.9          22.0 GVEC112V00
     K24C02B  C2024 01 20.51132 12 30 09.05 +11 36 15.7          23.0 GVEC112V00
     K24C02B  C2024 01 20.51683 12 30 09.97 +11 36 23.2          22.5 GVEC112V00
     K24C02B* C2024 02 07.50491913 31 30.168+21 30 28.05         21.63wXEC112F52
     K24C02B  C2024 02 07.51860313 31 33.398+21 31 04.88         21.40wXEC112F52
     K24C02B  C2024 02 07.53226413 31 36.600+21 31 41.62         21.35wXEC112F52
     K24C02B  C2024 02 07.54592813 31 39.849+21 32 18.79         21.65wXEC112F52
     K24C02B  C2024 02 07.65755113 32 06.096+21 37 18.40         21.32GVEC112F52
     K24C02B  C2024 02 07.65837113 32 06.268+21 37 20.81         21.07GVEC112F52
     K24C02B  C2024 02 09.53774013 40 02.568+23 03 39.95         20.95GVEC112F52
     K24C02B  C2024 02 09.53855913 40 02.761+23 03 42.28         21.47GVEC112F52

Observer details:
F52 Pan-STARRS 2, Haleakala.  Observers J. Herman, T. Lowe, P. Minguez, A.
    Schultz, I. Smith.  Measurers K. Chambers, T. de Boer, J. Fairlamb, H.
    Gao, M. Huber, C.-C. Lin, E. Magnier, Y. Ramanjooloo, R. Wainscoat, R.
    Weryk.  1.8-m Ritchey-Chretien + CCD.
V00 Kitt Peak-Bok.  Observer H. Groeller.  Measurers B. Gray, D. Rankin, F. C.
    Shelly.  2.25-m reflector + mosaic CCD.

Orbital elements:
2024 CB2                                                 Earth MOID = 0.2159 AU
Epoch 2023 Sept. 13.0 TT = JDT 2460200.5                MPC                     
M 127.13486              (2000.0)            P               Q                  
n   0.90621991     Peri.  160.15390     +0.16157378     +0.96198404             
a   1.0575810      Node   118.59180     -0.93591551     +0.22013018             
e   0.2893788      Incl.   14.52269     -0.31297936     -0.16164596             
P   1.09           H   21.97          G   0.15           U   8                  
Residuals in seconds of arc
240120 V00  0.1-  0.1+    240207 F52  0.1+  0.2-    240207 F52  0.2-  0.2+
240120 V00  0.1+  0.0     240207 F52  0.3-  0.4-    240209 F52  0.1+  0.0
240120 V00  0.1+  0.0     240207 F52  0.1+  0.1-    240209 F52  0.1-  0.0
240207 F52  0.2+  0.0     240207 F52  0.1+  0.1-

Ephemeris:
2024 CB2                 a,e,i = 1.06, 0.29, 15                  q = 0.7515
Date    TT    R. A. (2000) Decl.     Delta      r    Elong.  Phase     V
2024 01 12    12 06 43.0 +08 56 59   0.5146  1.2737   112.7    45.4    22.8
...
2024 01 27    12 49 55.7 +14 25 31   0.3963  1.2262   118.9    44.7    22.1
...
2024 02 04    13 17 42.6 +19 02 42   0.3427  1.1970   120.6    45.1    21.8
...
2024 02 10    13 42 01.8 +23 25 34   0.3081  1.1735   120.5    46.4    21.5
2024 02 11    13 46 27.4 +24 13 56   0.3029  1.1695   120.3    46.7    21.5
2024 02 12    13 51 00.2 +25 03 32   0.2978  1.1654   120.1    47.1    21.5
...
2024 02 18    14 21 14.5 +30 23 37   0.2711  1.1400   117.8    50.1    21.3
...
2024 02 26    15 11 35.4 +38 01 46   0.2459  1.1044   111.6    56.4    21.2
...
2024 03 12    17 24 39.1 +49 02 34   0.2306  1.0327    93.2    73.9    21.4

A. U. Tomatic                (C) Copyright 2024 MPC           M.P.E.C. 2024-C112





More information about the Iaude mailing list